Regional Weather Roundup
Issued by NWS Northern Indiana

Home | Current Version | Previous Version | Graphics & Text | Print | Product List | Glossary On
Versions: 1 2 3 4 5 6 7 8 9 10 11 12 13 14 15 16 17 18 19 20 21 22 23 24 25 26 27 28 29 30 31 32 33 34 35 36 37 38 39 40 41 42 43 44 45 46 47 48 49 50
000
ASUS43 KIWX 290900
RWRIWX

KIWX WEATHER ROUNDUP
NATIONAL WEATHER SERVICE NORTHERN INDIANA
500 AM EDT MON MAY 29 2017

NOTE: "FAIR" INDICATES FEW OR NO CLOUDS BELOW 12,000 FEET WITH NO
SIGNIFICANT WEATHER AND/OR OBSTRUCTIONS TO VISIBILITY.

* THESE STATIONS ARE NOT UNDER NWS QUALITY CONTROL. THEY ALSO MAY NOT
  REPORT WEATHER SUCH AS PRECIPITATION OR FOG.

INZ001>027-291000-
NORTHERN INDIANA

CITY           SKY/WX    TMP DP  RH WIND       PRES   REMARKS
MICHIGAN CITY* PTCLDY    54  54 100 CALM      29.78S
SOUTH BEND     CLEAR     56  53  90 CALM      29.79R
GOSHEN         PTCLDY    56  52  86 SW6       29.79R
MONTICELLO*    PTCLDY    58  54  85 SW8       29.80S
ANGOLA*        CLEAR     57  48  72 CALM      29.79R
FORT WAYNE     PTCLDY    59  55  87 SW8       29.81R
PERU/GRISSOM   CLEAR     55  55 100 SW7       29.81S

$$
INZ028>050-291000-
CENTRAL INDIANA

CITY           SKY/WX    TMP DP  RH WIND       PRES   REMARKS
LAFAYETTE      CLOUDY    56  55  97 W5        29.82S
KOKOMO*        PTCLDY    58  55  90 SW8       29.83S
MUNCIE*        CLEAR     61  58  90 SW7       29.84R
INDIANAPOLIS   PTCLDY    57  55  93 SW7       29.85R

$$
MIZ043>046-050>051-056>058-064>065-071>073-077>080-291000-
SOUTHWEST LOWER MICHIGAN

CITY           SKY/WX    TMP DP  RH WIND       PRES   REMARKS
BATTLE CREEK   CLEAR     54  51  90 SW7       29.77R
BENTON HARBOR  PTCLDY    52  49  89 CALM      29.76S
COLDWATER*     CLEAR     56  55  97 SW5       29.78R
HILLSDALE*     CLEAR     55  52  88 W3        29.78R
HOLLAND        CLEAR     55  47  74 CALM      29.74F
GRAND RAPIDS   CLEAR     55  52  89 SW6       29.73F
KALAMAZOO      CLEAR     56  50  80 SW7       29.77R
STURGIS*       CLEAR     55  53  93 MISG      29.78S
THREE RIVERS*  FAIR      54  51  92 CALM      29.79R

$$
OHZ001>008-015>018-024>025-291000-
NORTHWEST OHIO

CITY           SKY/WX    TMP DP  RH WIND       PRES   REMARKS
DEFIANCE       CLEAR     55  54  96 SW5       29.80R
FINDLAY        CLEAR     59  55  87 SW8       29.80R
TOLEDO EXPRESS CLEAR     58  57  97 SW8       29.77R
TOLEDO METCALF PTCLDY    60  58  92 SW7       29.78R
LIMA           CLEAR     60  60 100 SW8       29.82R

$$
AND FOR LAKE MICHIGAN COASTAL AND OPEN LAKE BUOY OBSERVATIONS

STATION/POSITION TEMP    WIND        PRES    VSBY  WAVE
                 AIR SEA DIR/SP/G                  HT/PER
                 (F)     (DEG/KT/KT) (MB)    (MI)  (FT/S)
CALUMET HARBOR    64     200/  6/  8 1007.9R
MICHIGAN CITY     62     190/  8/  9   N/A
BURNS HARBOR      62     200/ 11/ 13 1009.1R
SOUTH LAKE BUOY   53 47  250/ 10/ 10 1007.4          1
4 MI NW BRIDGMAN  60 59  200/  4/  6 1008.1R         1
MICHIGAN CITY     59 57  210/  6/  8   N/A           1

$$
&&




USA.gov is the U.S. government's official web portal to all federal, state and local government web resources and services.